Location: Aytr�
(46.1357°N, 1.1145°W)
Time: 00:13:00
(UTC+00:00)

Nauka - Pass Details

Date: 18 September 2021
Orbit: 417 x 423 km, 51.6° (Epoch: 19 October)

Event Time Altitude Azimuth Distance (km) Brightness Sun altitude
Rises 18:42:52 0° 213° (SSW) 2,348 ? -6.5°
Reaches altitude 10° 18:45:06 10° 202° (SSW) 1,490 ? -6.9°
Maximum altitude 18:48:02 29° 140° (SE) 807 ? -7.4°
Drops below altitude 10° 18:51:00 10° 79° (E) 1,501 ? -7.9°
Enters shadow 18:51:11 - 78° (ENE) 1,569 ? -8.0°
